Regional Weather Roundup
Issued by NWS

Home | Current Version | Previous Version | Graphics & Text | Print | Product List | Glossary On
Versions: 1 2 3 4 5 6 7 8 9 10 11 12 13 14 15 16 17 18 19 20 21 22 23 24 25 26 27 28 29 30 31 32 33 34 35 36 37 38 39 40 41 42 43 44 45 46 47 48 49 50
000
ASUS43 KIND 032259
RWRIN

WEATHER ROUNDUP FOR INDIANA
NATIONAL WEATHER SERVICE INDIANAPOLIS IN
600 PM EST SAT DEC 03 2016

NOTE: "FAIR" INDICATES FEW OR NO CLOUDS BELOW 12,000 FEET WITH NO
SIGNIFICANT WEATHER AND/OR OBSTRUCTIONS TO VISIBILITY.

* - STATION DOES NOT REPORT WEATHER SUCH AS PRECIPITATION OR FOG.

+ - STATION NOT QUALITY CONTROLLED BY THE NATIONAL WEATHER SERVICE.
    USE DATA WITH CAUTION...ESPECIALLY DEWPOINT AND RELATIVE
    HUMIDITY OBSERVATIONS.

INZ001>003-010>013-019-020-040000-
NORTHWEST INDIANA

CITY           SKY/WX    TMP DP  RH WIND       PRES   REMARKS
GARY /AIRPORT/ MOCLDY    34  25  69 W8        30.33  WCI  27
LA PORTE +     CLOUDY    35  30  82 SW6       30.31F WCI  30

$$

LMZ046-743>745-040000-
SOUTHERN LAKE MICHIGAN

STATION/POSITION TIME  TEMP    WIND        PRES    WAVE
                       AIR SEA DIR/SP/G            HT
                 (UTC) (F)     (DEG/KT/KT) (MB)    (FT)
BURNS HARBOR     2240   35     230/  6/ 10 1027.1F
MICHIGAN CITY    2230   35     210/  9/ 10   N/A

$$

INZ004-005-014>016-021>024-040000-
NORTH CENTRAL INDIANA

CITY           SKY/WX    TMP DP  RH WIND       PRES   REMARKS
ELKHART        CLOUDY    36  25  64 CALM      30.30F
GOSHEN         CLOUDY    36  23  59 CALM      30.30F
SOUTH BEND     CLOUDY    34  25  69 SW7       30.31F WCI  28
WARSAW +       CLOUDY    34  25  69 W3        30.30S

$$

INZ006>009-017-018-025>027-040000-
NORTHEAST INDIANA

CITY           SKY/WX    TMP DP  RH WIND       PRES   REMARKS
ANGOLA *+      CLOUDY    36  27  69 CALM      30.28F
FORT WAYNE     CLOUDY    35  25  66 N5        30.30F WCI  31
KENDALLVILLE + CLOUDY    34  25  69 CALM      30.29F

$$

INZ028-029-035-036-043>045-051>053-040000-
WEST CENTRAL INDIANA

CITY           SKY/WX    TMP DP  RH WIND       PRES   REMARKS
CRAWFORDSVL +  CLOUDY    33  28  81 NW6       30.31F WCI  27
GREENCASTLE +  CLOUDY    36  30  80 CALM      30.30F
LAFAYETTE      CLOUDY    34  26  72 CALM      30.32S
TERRE HAUTE    CLOUDY    36  28  73 N3        30.33S

$$

INZ030>032-037>040-046>048-054>057-064-065-040000-
CENTRAL INDIANA

CITY           SKY/WX    TMP DP  RH WIND       PRES   REMARKS
COLUMBUS       PTCLDY    36  32  87 NE3       30.32S
FRANKFORT +    CLOUDY    37  29  74 N3        30.32S
GREENWOOD *+   CLOUDY    37  30  74 CALM      30.31S
INDIANAPOLIS   MOCLDY    36  28  73 N6        30.30F
-EAGLE CREEK   CLOUDY    36  27  69 N5        30.30F
KOKOMO +       CLOUDY    35  26  69 W5        30.31F WCI  31
SHELBYVILLE    CLOUDY    36  29  75 CALM      30.30F
ZIONSVILLE +   CLOUDY    33  28  79 NW5       30.31S WCI  29

$$

INZ033-034-041-042-049-050-058-059-040000-
EAST CENTRAL INDIANA

CITY           SKY/WX    TMP DP  RH WIND       PRES   REMARKS
MUNCIE         CLOUDY    36  28  73 NW7       30.30F

$$

INZ060-061-067>069-081>083-085>088-040000-
SOUTHWEST INDIANA

CITY           SKY/WX    TMP DP  RH WIND       PRES   REMARKS
EVANSVILLE     CLOUDY    41  30  65 NE5       30.30S
HUNTINGBURG *+ CLOUDY    41  28  60 N6        30.30S

$$

INZ062-063-066-070>080-084-089>092-040000-
SOUTH CENTRAL AND SOUTHEAST INDIANA

CITY           SKY/WX    TMP DP  RH WIND       PRES   REMARKS
BLOOMINGTON    CLOUDY    36  29  75 N5        30.30S
MADISON *+     CLOUDY    37  30  75 CALM      30.32S
SEYMOUR +      CLOUDY    41  28  60 N3        30.31

$$





USA.gov is the U.S. government's official web portal to all federal, state and local government web resources and services.